Location: Austin
(30.3000°N, 97.7500°W)
Time: 23:43:08
(UTC-06:00)

Cosmos 1992 Rocket - Pass Details

Date: 04 November 2025
Orbit: 754 x 761 km, 74.0° (Epoch: 15 November)

Event Time Altitude Azimuth Distance (km) Brightness Sun altitude
Rises 19:33:23 0° 343° (NNW) 3,217 7.4 -24.6°
Reaches altitude 10° 19:35:46 10° 343° (NNW) 2,287 6.6 -25.1°
Maximum altitude 19:40:57 87° 258° (WSW) 761 3.9 -26.3°
Enters shadow 19:41:42 66° 172° (S) 821 4.0 -26.4°
